User: anonymous   Login
Location: Unspecified
(42.1900°N, 71.3291°W)
Time: 21:22:34
(UTC-05:00)
Language:

Resurs 1-4 Rocket - Orbit

View from above orbital plane
View from above orbital plane
View from above satellite
View from above satellite

Ground track
Ground track

The orbit data is extracted from the following two-line orbital elements,

1 25400U 98043G   16041.50764209  .00000032  00000-0  31219-4 0  9995
2 25400  98.4213   1.3710 0008860 302.2574  57.7748 14.25369198914883
Epoch (UTC): 10 February 2016 12:11:00
Eccentricity: 0.0008860
inclination: 98.4213°
perigee height: 801 km
apogee height: 813 km
right ascension of ascending node: 1.3710°
argument of perigee: 302.2574°
revolutions per day: 14.25369198
mean anomaly at epoch: 57.7748°
orbit number at epoch: 91488

The dashed part of the orbit path shows where the satellite is in the earth's shadow,  

DLR